Time,TemperatureF,DewpointF,PressureIn,WindDirection,WindDirectionDegrees,WindSpeedMPH,WindSpeedGustMPH,Humidity,HourlyPrecipIn,Conditions,Clouds,dailyrainin,SoftwareType,DateUTC
2013-01-04 21:24:00,35.0,18.7,29.25,West,270,0.0,0.0,51,0.00,,,0.00,Weather View 32 v70,2013-01-05 02:24:00,
2013-01-04 21:25:00,35.0,18.7,29.25,WNW,292,1.0,1.0,51,0.00,,,0.00,Weather View 32 v70,2013-01-05 02:25:00,
2013-01-04 21:30:00,35.0,18.2,29.25,WNW,292,0.0,7.0,50,0.00,,,0.00,Weather View 32 v70,2013-01-05 02:30:00,
2013-01-04 21:35:00,34.0,17.8,29.26,West,270,0.0,7.0,51,0.00,,,0.00,Weather View 32 v70,2013-01-05 02:35:00,
2013-01-04 21:40:00,35.0,18.7,29.25,WSW,247,0.0,7.0,51,0.00,,,0.00,Weather View 32 v70,2013-01-05 02:40:00,
2013-01-04 21:45:00,34.0,17.8,29.25,WSW,247,1.0,7.0,51,0.00,,,0.00,Weather View 32 v70,2013-01-05 02:45:00,
2013-01-04 21:50:00,34.0,17.8,29.25,NW,315,0.0,7.0,51,0.00,,,0.00,Weather View 32 v70,2013-01-05 02:50:00,
2013-01-04 21:55:00,34.0,18.2,29.25,WSW,247,0.0,7.0,52,0.00,,,0.00,Weather View 32 v70,2013-01-05 02:55:00,
2013-01-04 22:00:00,34.0,18.2,29.25,WNW,292,1.0,7.0,52,0.00,,,0.00,Weather View 32 v70,2013-01-05 03:00:00,
2013-01-04 22:05:00,34.0,18.2,29.25,WSW,247,0.0,7.0,52,0.00,,,0.00,Weather View 32 v70,2013-01-05 03:05:00,
2013-01-04 22:10:00,34.0,18.2,29.25,WNW,292,0.0,7.0,52,0.00,,,0.00,Weather View 32 v70,2013-01-05 03:10:00,
2013-01-04 22:15:00,34.0,18.2,29.25,WSW,247,0.0,7.0,52,0.00,,,0.00,Weather View 32 v70,2013-01-05 03:15:00,
2013-01-04 22:20:00,34.0,18.2,29.25,West,270,1.0,7.0,52,0.00,,,0.00,Weather View 32 v70,2013-01-05 03:20:00,
2013-01-04 22:25:00,34.0,18.2,29.25,WSW,247,0.0,7.0,52,0.00,,,0.00,Weather View 32 v70,2013-01-05 03:25:00,
2013-01-04 22:30:00,34.0,18.6,29.26,WNW,292,4.0,6.0,53,0.00,,,0.00,Weather View 32 v70,2013-01-05 03:30:00,
2013-01-04 22:35:00,34.0,17.8,29.26,WNW,292,0.0,8.0,51,0.00,,,0.00,Weather View 32 v70,2013-01-05 03:35:00,
2013-01-04 22:40:00,34.0,17.8,29.26,West,270,0.0,8.0,51,0.00,,,0.00,Weather View 32 v70,2013-01-05 03:40:00,
2013-01-04 22:45:00,34.0,17.8,29.26,WNW,292,0.0,8.0,51,0.00,,,0.00,Weather View 32 v70,2013-01-05 03:45:00,
2013-01-04 22:50:00,34.0,17.8,29.26,WSW,247,1.0,8.0,51,0.00,,,0.00,Weather View 32 v70,2013-01-05 03:50:00,
2013-01-04 22:55:00,34.0,17.8,29.26,West,270,0.0,8.0,51,0.00,,,0.00,Weather View 32 v70,2013-01-05 03:55:00,
2013-01-04 23:00:00,34.0,17.8,29.26,WSW,247,0.0,8.0,51,0.00,,,0.00,Weather View 32 v70,2013-01-05 04:00:00,
2013-01-04 23:05:00,34.0,18.2,29.26,WSW,247,0.0,8.0,52,0.00,,,0.00,Weather View 32 v70,2013-01-05 04:05:00,
2013-01-04 23:10:00,34.0,18.2,29.25,WSW,247,0.0,8.0,52,0.00,,,0.00,Weather View 32 v70,2013-01-05 04:10:00,
2013-01-04 23:15:00,33.0,17.7,29.26,WSW,247,0.0,8.0,53,0.00,,,0.00,Weather View 32 v70,2013-01-05 04:15:00,
2013-01-04 23:20:00,33.0,18.2,29.26,WSW,247,4.0,8.0,54,0.00,,,0.00,Weather View 32 v70,2013-01-05 04:20:00,
2013-01-04 23:25:00,33.0,18.2,29.26,WNW,292,0.0,8.0,54,0.00,,,0.00,Weather View 32 v70,2013-01-05 04:25:00,
2013-01-04 23:30:00,33.0,18.2,29.25,West,270,2.0,8.0,54,0.00,,,0.00,Weather View 32 v70,2013-01-05 04:30:00,
2013-01-04 23:35:00,33.0,18.2,29.25,WSW,247,0.0,6.0,54,0.00,,,0.00,Weather View 32 v70,2013-01-05 04:35:00,
2013-01-04 23:40:00,33.0,18.2,29.25,WNW,292,1.0,6.0,54,0.00,,,0.00,Weather View 32 v70,2013-01-05 04:40:00,
2013-01-04 23:45:00,33.0,18.2,29.25,West,270,0.0,6.0,54,0.00,,,0.00,Weather View 32 v70,2013-01-05 04:45:00,
2013-01-04 23:50:00,33.0,18.2,29.25,West,270,1.0,6.0,54,0.00,,,0.00,Weather View 32 v70,2013-01-05 04:50:00,
2013-01-04 23:55:00,33.0,18.2,29.25,West,270,0.0,6.0,54,0.00,,,0.00,Weather View 32 v70,2013-01-05 04:55:00,